Theta_e
306 305 306 307 307 297 303 302 300 303 308 307 303 302 301 302 301 298 310 308 313 317 317 319 324 325 327 329 329 331 334 335 337 337 337 338 338 340 341 341 341 341 341 342 343 346 346 347 347 347 349 350 351 351 351 352 353 354 353 355 354 356 358
308 307 309 310 308 308 306 301 304 308 309 309 305 297 300 299 295 297 304 302 305 306 300 319 322 322 324 327 327 329 333 333 334 336 339 340 340 341 343 344 343 343 343 342 344 347 348 347 346 346 349 351 352 352 351 350 351 352 351 352 352 353 356
307 305 308 309 311 311 307 308 312 305 301 300 305 303 293 293 293 295 300 301 303 307 306 315 318 320 321 325 327 328 328 331 332 334 337 340 341 341 342 342 342 342 342 342 348 346 346 346 347 346 348 349 350 350 350 350 350 350 350 350 351 353 354
304 306 307 301 306 310 311 312 308 310 309 306 302 302 302 300 295 295 296 300 297 312 311 314 318 322 324 324 326 327 328 330 332 334 335 338 340 341 342 342 342 342 343 345 346 346 345 346 346 346 348 347 347 348 348 349 350 351 351 350 351 351 352
303 302 305 303 307 305 305 307 305 307 308 308 308 306 303 299 298 297 295 294 301 310 316 319 321 324 326 327 327 329 330 331 332 334 336 339 340 340 342 343 343 342 344 344 345 346 346 345 345 346 347 347 347 347 347 349 348 348 349 349 350 352 352
302 302 304 304 305 309 308 307 306 307 303 302 299 299 305 304 300 295 296 295 303 312 317 323 323 326 327 330 329 329 331 332 335 337 339 339 340 342 340 340 341 344 345 344 345 345 345 344 345 346 346 347 347 347 347 346 347 348 347 349 351 353 353
302 304 306 306 306 308 306 308 306 309 310 308 301 293 302 304 303 303 303 298 301 316 318 323 327 328 329 330 331 329 331 333 334 337 338 339 340 340 341 342 342 342 344 345 345 345 344 344 345 345 346 346 347 349 349 348 348 349 349 350 352 355 354
305 307 307 308 308 309 308 307 307 308 305 306 304 303 307 304 303 301 301 298 301 314 322 326 327 330 330 331 330 331 331 333 335 337 336 337 339 340 340 342 343 344 343 344 345 344 345 347 348 347 347 347 348 350 352 352 350 351 352 353 354 355 353
302 304 307 306 308 309 308 308 309 309 308 308 308 309 309 303 304 303 300 294 299 313 318 324 327 326 326 328 329 331 332 333 333 334 335 336 337 339 339 340 341 342 343 343 344 345 346 346 348 348 346 347 348 349 351 350 351 353 352 354 353 354 354
291 292 294 296 301 305 305 309 308 309 309 308 308 302 305 297 305 303 300 299 306 313 314 318 323 324 325 327 328 329 332 333 333 332 333 335 335 336 339 341 341 340 341 343 345 345 345 346 346 347 348 347 347 350 351 352 352 354 354 354 354 354 353
298 301 310 305 307 303 301 302 307 307 308 308 310 310 304 299 304 302 306 307 307 309 312 317 320 322 323 324 326 326 330 331 331 332 332 333 333 335 336 338 339 340 341 341 343 345 346 346 347 346 346 346 347 348 349 350 352 353 355 354 354 355 354
307 307 306 302 308 304 302 302 305 308 307 308 307 303 301 312 304 298 308 313 305 306 312 315 318 320 323 324 325 325 329 331 330 329 330 332 334 335 336 337 338 339 340 341 342 344 345 347 348 348 347 346 346 347 346 348 351 352 352 353 353 353 353
300 301 301 304 303 302 302 303 303 305 308 307 306 307 308 308 302 300 308 312 308 310 313 315 316 319 321 322 326 326 330 328 327 328 330 331 331 333 334 336 337 338 339 340 341 342 344 345 346 348 350 349 347 347 348 348 348 351 354 354 354 351 353
300 300 301 301 301 301 300 301 302 302 306 307 307 308 308 308 308 311 309 313 311 312 313 314 322 321 324 326 327 327 328 328 327 327 329 330 331 332 333 335 335 336 337 339 340 341 342 343 344 345 346 347 348 347 347 348 349 351 353 354 354 353 353
299 300 301 299 300 301 301 301 301 301 301 304 306 307 307 308 307 307 307 310 311 317 318 324 324 325 327 327 327 328 327 326 327 327 327 330 332 334 333 334 334 335 336 337 337 338 339 340 341 343 344 346 346 347 348 350 350 352 352 352 354 354 354
298 299 299 300 300 300 300 302 303 303 302 302 304 304 309 307 306 311 309 306 308 315 319 325 325 325 327 327 326 326 327 326 326 327 328 329 331 333 334 334 335 335 335 335 335 336 337 339 340 341 342 344 345 345 347 348 350 352 352 352 353 354 355
298 299 301 300 300 300 298 299 302 306 306 308 307 308 311 310 313 308 305 306 316 318 325 324 324 325 324 324 327 327 326 327 326 326 327 329 332 333 333 333 334 334 334 334 335 336 337 338 339 341 342 343 343 345 346 348 349 350 350 351 352 353 355
299 299 300 300 299 292 295 308 307 308 305 308 306 307 309 313 313 311 315 315 316 320 323 324 324 325 326 328 329 329 329 329 328 329 330 331 333 333 334 334 334 334 334 335 336 337 337 339 340 341 342 342 343 345 346 348 348 348 348 349 350 351 354
298 299 300 296 291 294 307 307 312 311 308 309 308 312 315 314 316 317 316 319 321 324 326 327 327 327 327 327 329 327 326 329 329 329 330 330 331 332 333 333 333 334 335 336 337 337 337 338 338 337 338 339 339 339 342 343 346 347 347 347 348 350 351
299 298 298 290 293 305 304 309 315 315 311 311 311 311 316 319 316 319 318 323 323 321 322 323 324 325 325 326 327 328 328 329 330 329 329 331 332 332 333 332 334 334 334 335 335 335 337 336 335 335 335 336 335 335 338 339 342 344 346 346 347 348 350
297 298 297 297 304 300 307 307 311 311 313 311 310 302 310 318 321 321 321 323 322 321 322 324 323 325 323 323 326 328 328 329 330 330 331 332 333 334 334 335 335 335 336 336 335 334 334 334 333 333 334 333 333 333 334 336 338 341 344 345 346 347 348
300 297 295 296 296 293 301 314 314 318 314 317 314 310 306 317 321 325 325 325 321 321 322 323 324 324 322 314 319 329 330 330 330 331 333 335 335 335 335 336 336 336 335 335 334 332 332 332 332 332 333 333 332 332 333 334 335 337 339 342 346 346 347
297 298 295 294 293 298 309 310 312 314 314 314 315 307 302 316 322 324 326 326 325 324 323 323 322 319 311 311 316 327 331 331 333 332 333 334 334 335 335 334 333 334 333 332 332 332 331 330 331 333 333 333 332 331 332 333 334 334 336 339 343 345 347
300 299 295 294 301 299 307 311 311 313 315 313 310 297 299 315 321 324 326 328 327 326 327 325 323 316 311 312 319 328 332 333 334 333 332 332 333 333 334 335 334 333 332 331 331 330 329 330 333 332 332 332 331 331 333 335 334 334 336 338 342 346 348
300 299 298 298 300 308 309 310 314 314 314 311 300 294 303 318 322 327 327 329 331 328 325 326 320 323 323 326 331 333 334 331 332 333 334 334 333 332 332 331 332 330 330 330 329 329 330 331 331 332 331 330 330 332 333 334 335 337 340 340 340 342 346
299 299 297 297 303 310 311 313 314 317 310 300 299 312 319 323 325 329 329 329 330 329 330 328 326 327 325 329 332 331 330 330 330 331 332 332 332 332 333 331 330 329 329 329 329 329 330 330 330 331 330 328 329 330 331 333 337 340 342 343 342 340 341
298 299 296 294 290 304 313 314 313 312 307 308 320 318 315 325 328 328 330 330 328 330 328 330 327 326 328 329 330 331 330 330 330 331 331 331 330 329 329 329 329 327 327 327 327 327 328 330 330 329 328 327 328 330 331 334 338 340 342 343 343 341 340
298 296 295 294 305 314 317 315 309 312 316 321 321 322 318 324 329 330 330 330 330 329 329 327 326 327 327 328 329 329 329 330 331 331 331 331 330 330 328 328 327 327 326 326 325 326 327 328 329 328 326 325 327 328 329 333 335 338 342 343 342 340 340
302 301 304 312 311 313 318 319 317 323 323 320 323 327 324 324 325 332 330 330 329 330 330 329 328 326 327 328 329 328 328 329 329 330 330 329 328 327 325 324 326 326 324 324 324 325 326 326 327 327 326 325 326 326 329 332 333 335 339 343 342 341 341
311 311 312 313 315 314 315 315 319 319 321 318 322 325 324 327 328 329 331 333 330 329 330 328 327 328 328 327 328 328 329 329 330 330 328 327 327 325 324 325 325 325 324 323 324 324 325 326 326 326 326 325 324 325 329 330 331 333 334 337 340 341 342
302 299 314 315 317 318 319 317 320 324 324 323 322 327 329 328 328 329 330 332 332 330 330 330 330 328 328 327 328 328 328 328 329 328 327 326 324 323 324 323 323 323 323 322 322 323 323 324 325 325 326 325 325 327 327 329 330 331 331 330 329 328 328
306 307 315 318 319 321 322 321 319 321 323 323 323 328 329 331 331 331 330 332 331 331 330 332 331 329 327 327 327 327 327 328 328 327 326 324 323 323 323 323 324 324 323 322 322 323 323 324 325 325 326 326 326 327 328 329 330 330 328 327 326 325 324
310 315 317 318 320 320 322 323 323 324 324 324 325 327 329 329 329 329 330 333 332 331 333 331 330 327 325 327 328 327 327 327 327 326 324 323 322 322 322 323 324 323 322 322 323 323 323 324 325 325 326 326 327 328 328 329 329 326 325 326 324 324 324
305 306 312 318 308 309 316 320 323 324 323 326 327 328 329 330 330 331 330 329 331 333 333 332 331 329 327 327 327 328 328 328 327 324 322 322 321 321 323 324 323 322 322 322 323 323 323 325 326 327 327 327 327 327 328 328 328 326 325 324 323 322 323
307 313 315 322 321 320 321 322 323 326 326 328 328 329 330 331 333 333 332 329 328 329 329 332 332 331 328 327 328 329 328 327 326 324 323 322 320 321 324 323 322 322 323 324 323 322 324 327 327 328 328 327 326 326 327 327 326 325 324 323 323 323 323
313 314 315 320 319 316 321 322 325 327 328 329 330 331 332 332 332 333 335 335 332 330 330 330 332 332 330 328 329 328 327 325 323 322 323 323 322 324 325 323 323 324 323 322 322 322 324 326 327 328 327 326 326 325 326 326 326 325 324 323 321 322 322
311 318 317 317 318 321 323 324 326 329 328 330 329 329 330 331 331 332 333 333 335 333 331 330 330 331 331 329 329 329 327 324 323 322 323 324 324 325 324 322 323 324 323 324 323 322 323 325 326 327 327 327 327 326 326 326 325 325 325 324 322 322 323
Wind_Speed
2 1 4 1 1 4 5 4 4 1 3 3 6 3 3 1 1 2 2 4 3 3 5 4 2 3 3 2 2 2 4 4 2 2 2 3 5 7 9 9 9 11 10 11 11 11 10 9 9 11 12 12 13 12 12 13 12 12 12 12 12 11 10
4 2 2 7 5 1 8 4 5 6 0 3 1 1 1 0 3 0 1 4 4 2 4 2 3 4 3 1 2 2 2 3 3 3 2 2 4 5 7 8 8 9 10 11 10 6 7 8 7 7 8 9 10 11 13 14 13 13 13 12 13 12 11
3 2 2 8 8 5 2 2 8 3 2 4 2 2 3 3 4 2 2 3 5 4 4 2 4 6 5 2 1 1 2 3 3 3 3 3 2 3 4 6 7 8 9 10 9 9 9 10 10 11 10 10 9 10 12 13 15 16 15 12 12 10 11
2 1 3 5 4 7 7 8 5 2 2 2 3 1 1 1 1 2 1 2 4 4 3 3 5 7 5 3 1 2 2 2 2 3 4 4 4 2 3 5 5 7 9 10 10 10 9 8 10 12 12 12 14 12 11 11 11 11 12 13 11 11 12
2 5 0 2 6 7 4 4 3 2 4 1 2 2 1 2 1 1 3 3 1 1 1 3 5 7 5 3 1 0 2 2 2 3 4 4 4 3 2 1 3 6 7 7 8 7 9 11 11 10 10 13 13 12 12 12 12 12 12 13 12 11 10
4 2 2 2 3 2 2 6 5 5 7 5 4 2 1 1 2 1 3 4 3 1 1 3 2 3 2 1 1 1 2 2 3 3 4 5 4 3 2 1 1 2 4 7 8 8 9 11 12 12 11 11 11 13 13 13 13 12 13 12 11 10 10
2 3 5 3 3 2 2 2 2 2 2 2 3 2 3 0 1 2 1 3 1 2 1 2 0 2 1 0 2 1 2 2 2 3 4 4 3 4 4 2 1 2 2 4 6 9 11 13 13 13 13 11 11 12 11 11 13 13 13 13 11 10 9
2 1 1 4 2 4 3 4 2 4 4 1 1 0 3 3 4 3 2 3 1 3 1 1 1 0 1 2 2 2 1 1 2 2 4 5 5 3 3 2 1 1 2 3 5 7 8 8 10 11 11 10 10 10 10 10 13 13 12 11 10 10 11
1 1 2 2 2 1 1 1 3 2 4 5 5 5 1 2 5 1 3 3 0 3 1 1 2 2 4 4 2 1 1 1 2 2 3 4 5 5 3 3 3 1 3 4 5 6 6 6 6 7 9 9 9 9 10 12 12 12 12 11 11 11 12
6 6 4 5 5 6 2 2 3 2 6 10 5 3 3 3 2 2 3 3 1 2 2 4 5 4 4 3 2 1 1 2 3 3 4 4 4 5 6 4 3 3 2 3 4 5 5 6 6 6 6 6 7 8 9 10 10 10 11 10 11 11 11
6 4 2 2 2 4 5 4 4 6 2 3 3 3 3 5 4 6 6 3 3 3 4 5 6 5 6 4 3 2 2 2 1 1 2 3 4 4 5 5 4 3 2 2 4 4 5 6 6 5 5 6 6 6 7 9 10 10 10 8 8 9 11
1 1 1 2 3 5 3 7 7 5 6 6 6 5 3 6 6 5 4 4 4 4 1 3 5 5 4 3 1 2 2 2 1 1 2 2 2 2 3 3 4 4 3 3 3 3 4 5 6 7 6 6 7 6 6 6 7 9 8 10 11 10 10
0 1 1 1 0 1 3 3 7 7 7 7 7 8 4 8 6 5 2 6 6 6 4 1 1 1 2 0 2 2 3 3 2 1 1 1 2 2 3 4 5 5 5 5 4 4 4 5 6 6 6 6 7 7 7 6 6 8 8 9 10 12 11
2 3 1 1 3 2 2 3 3 4 9 9 10 4 5 11 4 1 3 6 9 4 2 2 2 1 2 3 3 3 3 2 2 2 2 2 3 3 3 3 5 6 6 6 7 7 6 6 6 6 6 6 6 6 7 7 8 8 7 9 9 11 12
2 1 1 1 1 2 6 2 1 3 4 5 5 3 3 3 2 3 1 4 6 1 1 2 2 3 3 3 3 2 2 3 2 2 2 3 3 3 3 4 5 6 6 7 7 7 7 7 7 6 6 6 6 7 6 7 8 8 8 9 10 11 12
4 1 2 3 2 1 1 2 4 4 5 5 5 6 7 7 8 6 5 4 7 3 2 5 4 3 4 4 3 3 3 3 2 3 3 3 4 4 4 5 5 6 7 8 9 8 8 7 7 6 6 7 6 7 7 8 7 6 8 9 11 12 12
4 3 1 4 4 3 5 8 8 8 4 1 1 2 3 8 4 7 8 8 2 4 4 6 5 5 3 2 4 3 3 4 4 3 3 3 4 5 5 6 6 7 8 8 9 9 8 7 7 8 7 7 7 7 7 7 7 8 9 9 10 11 11
4 3 1 1 5 7 6 2 3 3 5 7 5 4 5 7 7 3 3 1 4 4 5 6 7 7 5 4 3 2 2 4 4 3 3 3 4 5 5 6 7 7 7 7 7 8 8 8 8 8 8 8 6 6 7 7 7 7 9 10 11 12 11
4 3 3 6 9 8 3 1 1 3 3 3 5 4 3 6 5 2 4 2 3 5 3 3 4 4 3 2 3 4 5 4 2 2 3 3 4 6 7 7 8 8 9 8 8 9 8 9 7 7 7 7 7 7 6 7 7 7 8 9 11 11 12
4 3 6 6 7 1 3 1 3 3 3 3 4 4 6 7 10 8 5 2 5 6 5 4 3 3 4 3 5 4 5 5 3 3 3 3 4 6 6 8 8 9 9 10 10 9 8 8 8 8 8 7 7 7 7 7 6 7 8 9 11 12 12
5 5 9 5 5 4 4 2 5 7 5 8 6 5 3 8 8 8 4 6 6 6 5 5 5 4 4 4 3 5 6 6 5 4 4 3 4 6 7 8 9 9 9 9 8 8 9 9 9 9 8 8 8 8 8 7 6 7 8 9 10 11 12
1 3 5 3 4 7 6 5 1 4 1 3 2 1 2 3 4 6 6 8 9 8 7 6 6 6 4 3 2 5 7 6 6 6 5 4 5 6 7 8 8 9 8 8 9 9 10 10 9 9 9 9 9 9 8 8 8 8 8 9 9 10 11
3 3 6 5 7 6 3 6 6 5 2 4 4 3 5 5 10 9 8 7 9 10 10 8 6 4 4 3 1 4 7 7 6 5 4 5 5 6 7 8 9 9 8 8 9 9 10 10 10 9 10 9 9 9 8 9 9 9 10 10 10 10 10
5 6 5 7 4 3 0 3 4 4 4 5 4 5 4 5 10 11 9 9 10 8 6 7 5 4 4 3 0 5 7 6 6 5 4 5 5 5 7 7 7 8 8 9 9 10 10 10 9 9 10 9 9 9 9 9 9 10 11 12 11 11 10
5 8 3 2 3 4 3 3 3 3 5 5 7 5 2 5 8 9 8 8 8 8 8 6 4 4 1 2 3 6 5 4 5 5 4 5 4 6 7 7 8 8 8 8 9 9 7 8 9 10 9 9 10 10 11 11 11 11 10 10 11 11 11
7 6 7 5 2 1 4 2 4 4 6 6 9 2 2 6 8 7 7 8 7 8 7 6 1 2 4 3 4 5 4 4 4 4 4 4 4 5 5 6 7 8 8 9 8 7 7 10 10 9 9 9 10 10 10 12 13 12 12 10 8 12 12
3 2 5 2 4 3 8 10 3 2 5 4 3 3 2 1 8 10 7 6 7 7 6 4 3 5 5 4 5 5 4 5 5 4 4 4 4 5 7 7 7 7 8 7 7 8 9 9 9 9 9 10 10 10 10 11 11 11 12 12 11 9 11
4 6 7 3 2 4 12 13 9 9 5 1 5 5 5 2 5 7 6 4 5 7 6 7 5 4 5 5 6 5 5 5 5 4 3 3 3 4 5 5 6 6 5 6 6 7 8 9 9 8 8 9 9 9 10 10 11 11 11 11 8 8 8
4 2 1 3 3 2 8 1 3 1 3 1 4 2 7 8 4 2 5 6 5 6 5 6 7 6 6 6 7 7 6 5 4 4 2 2 3 4 3 4 5 5 5 5 6 6 7 8 8 7 7 8 9 9 10 10 9 9 10 9 7 7 8
3 4 6 3 2 1 6 6 2 3 1 1 3 4 6 3 5 7 5 6 7 6 6 7 4 5 6 7 7 7 6 5 4 1 1 1 1 2 2 3 4 4 3 4 5 6 7 8 7 7 7 8 8 9 9 8 8 7 6 5 6 7 7
1 1 2 2 4 3 3 7 3 1 2 2 2 2 3 6 6 5 3 5 7 8 8 8 7 6 7 7 7 6 6 5 4 2 1 1 2 3 3 3 3 4 4 4 5 6 7 8 7 7 8 7 7 8 8 8 7 7 7 7 8 8 9
3 3 4 4 4 4 5 3 4 4 3 3 1 2 2 5 5 5 5 6 6 7 7 6 6 6 7 7 7 6 6 5 4 3 1 1 2 2 3 3 3 3 4 4 4 6 6 6 5 6 7 7 8 8 8 8 7 8 8 8 8 9 9
3 5 6 5 5 5 4 4 5 2 1 5 4 3 5 7 8 7 5 2 6 8 6 7 6 6 7 7 7 6 5 4 4 3 2 2 3 3 3 3 4 4 3 3 4 5 5 4 5 6 7 7 7 8 9 9 9 11 11 12 12 14 11
5 4 2 2 3 3 3 5 5 4 3 4 5 5 6 7 9 7 7 5 3 2 4 6 6 7 7 8 7 7 5 5 5 4 4 4 4 4 4 3 4 4 3 4 5 5 4 4 6 7 8 9 9 8 9 9 9 10 11 12 13 14 13
3 2 4 3 2 3 4 3 4 4 6 7 8 7 8 6 6 8 9 7 4 3 3 3 6 6 7 8 8 6 5 4 4 4 5 5 5 4 4 5 4 4 4 5 5 5 5 6 6 8 9 9 9 9 10 10 10 11 12 12 12 12 14
6 4 2 1 3 6 2 4 1 5 5 6 6 5 5 7 7 6 6 6 8 5 4 4 3 6 7 8 8 6 5 6 6 6 5 3 4 4 4 5 4 5 5 6 6 6 6 6 7 9 11 10 9 9 9 10 10 10 12 14 14 14 12
6 4 3 4 6 6 3 2 1 2 4 3 5 7 7 7 6 5 6 4 3 7 7 6 5 5 7 8 7 7 7 7 7 7 6 4 4 3 4 6 5 5 4 5 5 5 5 7 7 8 10 11 10 9 9 9 9 11 13 14 15 15 14
Wind_Direction
360 112 148 89 268 216 154 168 208 49 34 125 113 121 44 18 254 244 68 256 220 257 215 218 179 165 105 65 55 25 17 17 25 347 302 254 240 223 211 208 206 198 189 198 203 203 200 195 194 198 195 188 189 189 193 197 201 200 199 199 200 197 192
37 8 128 84 41 346 125 215 134 104 76 350 266 201 118 214 275 318 204 274 284 328 263 88 179 193 167 110 78 60 48 28 37 10 337 291 256 241 229 216 208 201 196 195 196 166 126 138 187 213 211 203 196 194 194 198 200 203 207 204 204 201 198
124 336 256 91 53 7 285 52 136 207 162 194 60 146 177 208 233 274 190 306 273 255 265 131 188 203 194 180 79 132 73 49 34 17 352 335 276 244 226 216 205 202 196 188 161 149 163 172 183 197 201 201 207 208 207 204 203 206 207 206 206 206 203
43 267 206 184 106 62 68 119 114 20 291 73 160 49 40 306 52 254 150 225 284 183 248 233 189 192 188 178 210 65 34 41 13 3 353 354 351 301 230 210 200 201 196 181 175 172 154 169 199 207 200 200 205 205 206 212 217 212 209 210 203 205 207
247 188 265 212 161 147 147 184 140 113 55 3 64 72 307 301 199 247 306 278 245 118 240 203 187 185 180 184 146 4 26 38 29 4 354 356 354 358 344 289 219 195 183 179 181 176 174 192 203 202 201 207 206 198 195 194 204 214 214 212 208 209 207
203 37 64 306 301 343 197 182 188 156 147 148 210 178 150 286 225 183 215 287 312 54 147 224 190 155 152 183 270 323 35 29 9 360 6 5 356 8 3 309 282 238 204 186 182 182 186 195 206 206 206 206 206 201 197 195 204 208 216 216 211 209 206
42 327 353 317 266 144 47 313 124 156 86 154 183 253 168 152 64 355 23 296 301 79 195 225 253 100 137 200 252 329 47 26 7 10 360 359 3 359 5 354 256 209 199 203 203 197 193 197 203 203 207 209 203 204 199 196 200 203 205 210 206 201 202
252 258 19 73 119 143 146 73 88 181 184 206 190 294 138 178 137 196 170 238 289 104 103 243 236 286 227 219 239 282 13 359 33 20 356 349 346 358 4 20 4 254 219 216 216 214 213 211 211 204 205 207 205 202 195 194 200 201 200 201 200 198 206
149 162 178 153 109 212 20 130 117 51 98 93 93 99 60 215 186 295 196 249 261 109 70 175 228 214 221 211 173 245 279 26 12 6 358 348 343 339 360 19 19 323 231 219 221 220 219 221 233 226 215 215 212 212 206 207 209 207 207 203 201 200 205
186 191 205 219 209 193 117 93 121 135 144 135 165 168 162 242 120 189 221 244 262 110 210 214 210 211 233 232 166 150 20 7 340 356 354 355 352 351 344 359 17 354 299 251 232 223 223 228 229 226 235 239 233 226 222 216 212 205 208 205 200 196 203
213 210 212 29 48 115 198 164 177 149 130 88 85 93 166 230 149 201 212 265 333 265 188 215 213 212 221 210 159 168 132 97 38 326 340 353 3 352 348 343 343 340 322 282 252 232 226 224 224 225 226 231 243 243 240 233 229 217 209 195 206 207 202
298 118 170 141 281 181 110 154 171 156 162 161 162 201 237 112 139 239 215 192 231 277 256 226 234 221 228 242 187 140 164 146 121 352 321 337 3 353 337 340 349 348 341 324 311 280 252 234 220 216 213 219 226 233 237 247 242 230 219 206 202 212 215
273 203 75 146 300 64 180 145 148 172 165 175 196 225 154 170 228 265 107 165 204 253 272 346 320 267 246 261 122 100 80 107 139 219 265 298 302 325 339 345 352 356 359 352 337 324 312 294 275 253 225 210 207 215 221 223 239 239 229 213 200 205 211
143 178 226 235 207 144 169 194 180 145 175 198 219 204 168 202 228 339 171 183 222 249 52 129 78 44 67 80 97 121 145 146 163 204 260 266 283 297 317 335 344 346 351 354 353 347 340 331 316 299 283 265 242 228 224 212 218 230 226 223 214 210 214
135 62 77 130 213 175 195 197 191 172 199 220 231 227 187 224 279 222 173 202 254 255 66 117 110 110 118 133 146 145 167 189 192 209 250 273 280 294 309 322 329 334 338 346 347 346 345 340 334 324 310 297 278 260 246 234 227 223 220 225 220 215 218
180 115 170 118 131 135 179 247 230 191 185 209 186 204 193 181 210 164 177 226 249 116 126 118 148 159 159 154 163 184 204 204 210 223 240 272 292 303 314 315 315 320 328 333 337 334 331 326 327 328 325 314 301 288 271 255 244 228 227 229 226 222 220
188 108 194 154 147 176 238 231 224 207 200 30 114 261 209 229 170 156 203 229 68 118 156 152 162 167 151 193 199 182 208 222 220 219 233 267 287 296 309 311 316 323 327 329 329 331 328 325 322 325 324 319 315 302 286 281 265 249 240 234 231 231 226
153 109 118 168 180 209 223 79 35 197 192 193 214 224 220 203 201 243 300 46 108 140 176 189 162 171 181 191 190 207 210 193 205 218 235 257 280 290 296 304 310 316 320 324 324 323 323 325 329 330 325 322 324 328 317 292 263 257 250 244 242 237 230
156 121 147 184 204 222 94 37 195 215 199 174 230 244 249 206 194 253 250 202 149 160 170 138 139 149 135 188 188 217 218 224 218 224 236 259 280 293 302 307 313 317 322 322 322 322 327 333 335 333 322 326 328 322 321 318 305 270 241 247 246 244 241
74 164 171 206 216 54 330 355 76 99 160 214 185 234 215 205 202 202 231 141 132 152 150 148 162 168 169 192 224 222 209 212 216 226 244 263 277 290 303 310 315 317 321 322 324 333 338 332 325 322 319 320 318 310 311 298 294 298 284 253 245 245 244
190 187 192 226 6 304 177 166 195 182 171 171 194 248 186 187 195 193 183 133 150 150 161 163 178 181 186 209 175 201 212 209 221 229 243 254 277 295 301 305 312 320 321 328 343 335 326 322 321 322 322 319 310 304 300 295 289 286 279 275 261 248 246
208 160 194 223 228 230 213 208 76 185 352 152 112 221 225 154 183 190 174 163 165 168 168 183 181 190 217 241 184 175 198 208 218 226 242 248 273 287 297 304 310 322 338 353 331 324 321 320 323 322 317 312 308 299 292 286 283 274 271 267 267 262 251
158 184 207 201 213 217 235 178 174 169 170 147 144 204 250 173 178 181 185 166 171 176 172 175 183 198 234 245 230 158 186 204 214 231 252 269 282 294 302 308 315 326 340 328 322 323 327 324 325 316 312 308 306 301 293 287 275 267 262 259 252 249 251
195 180 207 224 191 214 93 237 184 168 158 161 170 220 244 167 173 173 179 175 174 177 173 163 182 185 219 224 158 148 181 198 210 232 261 265 275 299 317 323 329 329 326 324 329 335 333 322 307 314 316 310 305 299 297 291 280 267 259 256 256 255 247
173 194 213 354 257 243 247 203 166 151 176 187 192 214 230 131 152 163 175 177 167 156 157 183 176 208 65 81 117 145 163 192 214 234 255 264 281 312 325 330 334 326 329 332 336 333 311 312 324 324 322 316 309 306 304 300 292 283 271 259 255 250 250
190 191 214 216 324 276 144 80 149 171 156 181 210 179 32 135 147 160 177 167 159 163 163 180 203 106 127 127 145 164 186 208 223 235 260 274 292 317 327 332 335 332 332 337 331 319 324 333 330 329 327 317 311 309 306 297 295 300 297 278 254 250 246
41 132 208 171 221 167 157 126 124 236 225 223 112 110 66 135 147 158 177 171 161 172 172 179 137 129 144 162 181 199 207 219 229 247 272 291 310 325 330 335 345 341 336 337 329 329 333 338 337 338 333 324 320 315 303 302 306 300 290 288 279 257 245
203 182 196 198 233 120 169 158 177 187 217 25 164 145 123 146 154 163 156 165 157 181 175 164 154 153 164 192 204 212 219 226 237 250 268 286 308 321 332 338 338 335 328 336 333 338 342 344 344 346 343 333 328 321 314 313 307 299 288 286 281 265 250
222 238 239 35 355 259 196 4 359 334 133 150 200 150 138 153 181 151 164 160 156 181 170 143 152 169 200 203 206 212 216 222 235 250 282 315 330 337 349 344 340 338 343 344 335 342 352 353 355 356 356 346 338 333 329 323 319 316 296 281 275 260 245
239 251 254 301 278 241 247 245 286 332 161 210 193 152 134 153 141 170 171 155 154 162 164 146 171 189 189 205 208 214 220 228 232 245 243 280 6 358 348 357 357 354 359 355 353 352 359 5 5 8 8 7 355 342 335 337 331 325 337 326 291 276 260
350 232 101 325 341 333 277 243 228 244 274 231 177 144 129 147 153 153 109 147 160 163 167 178 171 180 187 201 208 212 219 224 224 213 231 51 42 21 20 21 5 23 19 20 9 0 8 8 10 15 16 17 5 353 356 355 359 11 30 47 57 52 48
249 292 348 321 304 274 271 257 236 231 191 162 192 2 62 108 119 133 138 142 141 153 168 175 159 167 182 194 200 207 215 217 205 188 132 86 72 57 53 54 40 57 49 32 13 19 18 14 8 16 25 21 16 6 11 18 31 51 57 59 60 59 59
272 285 254 264 293 257 223 208 235 269 174 163 154 139 124 128 129 120 113 110 154 171 165 148 148 153 186 196 199 203 205 198 185 161 116 96 82 85 87 63 61 71 48 28 22 36 26 353 9 30 30 22 13 22 31 42 59 68 67 67 70 71 72
251 260 324 122 244 248 214 207 199 186 194 177 142 137 134 144 136 137 123 97 100 109 136 154 158 164 175 192 193 201 200 186 151 129 123 118 113 109 93 85 85 73 39 13 24 28 14 24 46 44 39 41 35 35 50 55 56 67 72 72 73 75 76
229 22 332 253 303 289 271 259 164 166 177 170 157 164 153 147 135 140 127 121 123 143 150 167 168 160 172 185 191 192 184 141 131 134 136 135 133 119 102 109 98 70 44 28 32 23 18 40 53 56 53 46 40 39 57 65 66 71 76 77 77 80 83
289 286 334 320 240 274 334 344 187 161 182 179 150 127 139 143 143 144 140 144 149 153 157 168 177 165 165 180 185 179 146 134 137 140 128 122 134 124 110 113 102 80 67 53 35 19 15 40 53 61 63 55 49 49 55 73 74 75 80 84 84 84 83
301 340 340 294 264 253 273 250 240 153 175 213 149 150 152 143 137 144 141 127 140 153 162 168 168 174 169 174 181 170 147 142 150 143 140 156 172 146 131 128 114 100 86 74 65 41 22 24 41 55 67 68 64 62 62 54 62 80 89 89 91 92 90